Time,TemperatureF,DewpointF,PressureIn,WindDirection,WindDirectionDegrees,WindSpeedMPH,WindSpeedGustMPH,Humidity,HourlyPrecipIn,Conditions,Clouds,dailyrainin,SoftwareType,DateUTC
2013-01-13 00:00:00,38.7,32.7,29.90,WNW,282,0.0,0.0,79,0.00,CLR,,0.00,WeatherDisplay:10.37,2013-01-13 05:00:00,
2013-01-13 00:02:00,38.7,32.7,29.90,WNW,282,0.0,0.0,79,0.00,CLR,,0.00,WeatherDisplay:10.37,2013-01-13 05:02:00,
2013-01-13 00:03:00,38.6,32.3,29.90,WNW,282,0.0,0.0,78,0.00,CLR,,0.00,WeatherDisplay:10.37,2013-01-13 05:03:00,
2013-01-13 00:04:00,38.6,32.3,29.90,WNW,282,0.0,0.0,78,0.00,CLR,,0.00,WeatherDisplay:10.37,2013-01-13 05:04:00,
2013-01-13 00:09:00,38.4,32.5,29.89,WNW,282,0.0,0.0,79,0.00,CLR,,0.00,WeatherDisplay:10.37,2013-01-13 05:09:00,
2013-01-13 00:14:00,38.3,33.0,29.89,West,281,0.0,0.0,81,0.00,CLR,,0.00,WeatherDisplay:10.37,2013-01-13 05:14:00,
2013-01-13 00:19:00,38.0,33.0,29.89,WNW,282,0.0,0.0,82,0.01,RA,,0.01,WeatherDisplay:10.37,2013-01-13 05:19:00,
2013-01-13 00:24:00,37.9,33.2,29.89,WNW,282,0.0,0.0,83,0.01,RA,,0.01,WeatherDisplay:10.37,2013-01-13 05:24:00,
2013-01-13 00:29:00,37.7,33.3,29.88,WNW,282,0.0,0.0,84,0.01,,,0.01,WeatherDisplay:10.37,2013-01-13 05:29:00,
2013-01-13 00:34:00,37.5,33.7,29.87,WNW,282,0.0,0.0,86,0.01,CLR,,0.01,WeatherDisplay:10.37,2013-01-13 05:34:00,
2013-01-13 00:39:00,37.2,33.7,29.87,West,281,0.0,0.0,87,0.02,RA,,0.02,WeatherDisplay:10.37,2013-01-13 05:39:00,
2013-01-13 00:44:00,37.0,33.8,29.87,WNW,282,0.0,0.0,88,0.02,RA,,0.02,WeatherDisplay:10.37,2013-01-13 05:44:00,
2013-01-13 00:49:00,36.8,33.9,29.87,West,281,0.0,0.0,89,0.02,CLR,,0.02,WeatherDisplay:10.37,2013-01-13 05:49:00,
2013-01-13 00:54:00,36.7,34.0,29.86,West,281,0.0,0.0,90,0.03,RA,,0.03,WeatherDisplay:10.37,2013-01-13 05:54:00,
2013-01-13 00:59:00,36.6,33.9,29.86,WNW,282,0.0,0.0,90,0.03,RA,,0.03,WeatherDisplay:10.37,2013-01-13 05:59:00,
2013-01-13 01:04:00,36.5,34.1,29.86,WNW,282,0.0,0.0,91,0.04,RA,,0.04,WeatherDisplay:10.37,2013-01-13 06:04:00,
2013-01-13 01:09:00,36.4,34.0,29.86,West,281,0.0,0.0,91,0.04,RA,,0.04,WeatherDisplay:10.37,2013-01-13 06:09:00,
2013-01-13 01:14:00,36.3,34.2,29.85,WNW,282,0.0,0.0,92,0.05,RA,,0.05,WeatherDisplay:10.37,2013-01-13 06:14:00,
2013-01-13 01:19:00,36.2,34.1,29.85,WNW,282,0.0,0.0,92,0.04,RA,,0.06,WeatherDisplay:10.37,2013-01-13 06:19:00,
2013-01-13 01:24:00,36.0,34.2,29.85,WNW,282,0.0,0.0,93,0.05,RA,,0.06,WeatherDisplay:10.37,2013-01-13 06:24:00,
2013-01-13 01:29:00,35.9,34.1,29.84,West,281,0.0,0.0,93,0.06,RA,,0.07,WeatherDisplay:10.37,2013-01-13 06:29:00,
2013-01-13 01:34:00,35.7,33.9,29.83,WNW,282,0.0,0.0,93,0.07,RA,,0.08,WeatherDisplay:10.37,2013-01-13 06:34:00,
2013-01-13 01:39:00,35.7,33.9,29.83,WNW,282,0.0,0.0,93,0.07,RA,,0.09,WeatherDisplay:10.37,2013-01-13 06:39:00,
2013-01-13 01:44:00,35.6,33.8,29.83,WNW,282,0.0,0.0,93,0.07,RA,,0.09,WeatherDisplay:10.37,2013-01-13 06:44:00,
2013-01-13 01:49:00,35.5,33.9,29.83,West,281,0.0,0.0,94,0.08,RA,,0.10,WeatherDisplay:10.37,2013-01-13 06:49:00,
2013-01-13 01:54:00,35.5,33.9,29.83,WNW,282,0.0,0.0,94,0.08,RA,,0.11,WeatherDisplay:10.37,2013-01-13 06:54:00,
2013-01-13 01:59:00,35.4,33.8,29.83,WNW,282,1.1,1.1,94,0.09,RA,,0.12,WeatherDisplay:10.37,2013-01-13 06:59:00,
2013-01-13 02:04:00,35.4,33.8,29.82,West,281,0.0,0.0,94,0.09,RA,,0.13,WeatherDisplay:10.37,2013-01-13 07:04:00,
2013-01-13 02:09:00,35.3,33.7,29.82,WNW,282,0.0,0.0,94,0.09,RA,,0.13,WeatherDisplay:10.37,2013-01-13 07:09:00,
2013-01-13 02:14:00,35.3,33.7,29.82,West,281,0.0,0.0,94,0.08,,,0.13,WeatherDisplay:10.37,2013-01-13 07:14:00,
2013-01-13 02:19:00,35.3,33.7,29.82,West,281,0.0,0.0,94,0.09,RA,,0.14,WeatherDisplay:10.37,2013-01-13 07:19:00,
2013-01-13 02:24:00,35.3,33.7,29.82,West,281,0.0,0.0,94,0.09,RA,,0.15,WeatherDisplay:10.37,2013-01-13 07:24:00,
2013-01-13 02:29:00,35.3,33.7,29.82,West,281,0.0,0.0,94,0.09,RA,,0.16,WeatherDisplay:10.37,2013-01-13 07:29:00,
2013-01-13 02:34:00,35.3,33.7,29.82,West,281,0.0,0.0,94,0.09,RA,,0.17,WeatherDisplay:10.37,2013-01-13 07:34:00,
2013-01-13 02:39:00,35.2,33.6,29.82,WNW,283,3.5,3.5,94,0.08,RA,,0.17,WeatherDisplay:10.37,2013-01-13 07:39:00,
2013-01-13 02:44:00,35.2,33.6,29.81,WNW,283,1.1,0.0,94,0.09,RA,,0.18,WeatherDisplay:10.37,2013-01-13 07:44:00,
2013-01-13 02:49:00,35.1,33.5,29.81,WNW,283,1.1,0.0,94,0.08,RA,,0.18,WeatherDisplay:10.37,2013-01-13 07:49:00,
2013-01-13 02:54:00,35.1,33.5,29.81,WNW,283,0.0,0.0,94,0.08,RA,,0.19,WeatherDisplay:10.37,2013-01-13 07:54:00,
2013-01-13 02:59:00,35.1,33.5,29.81,WNW,283,2.3,0.0,94,0.08,RA,,0.20,WeatherDisplay:10.37,2013-01-13 07:59:00,
2013-01-13 03:04:00,35.1,33.5,29.81,WNW,283,0.0,0.0,94,0.07,RA,,0.20,WeatherDisplay:10.37,2013-01-13 08:04:00,
2013-01-13 03:09:00,35.1,33.8,29.82,NW,319,0.0,0.0,95,0.07,,,0.20,WeatherDisplay:10.37,2013-01-13 08:09:00,
2013-01-13 03:14:00,35.1,33.8,29.82,NW,319,0.0,0.0,95,0.08,RA,,0.21,WeatherDisplay:10.37,2013-01-13 08:14:00,
2013-01-13 03:19:00,35.1,33.8,29.82,NW,320,0.0,0.0,95,0.07,RA,,0.21,WeatherDisplay:10.37,2013-01-13 08:19:00,
2013-01-13 03:24:00,35.0,33.7,29.82,NW,319,0.0,0.0,95,0.07,RA,,0.22,WeatherDisplay:10.37,2013-01-13 08:24:00,
2013-01-13 03:29:00,35.0,33.7,29.82,NW,320,0.0,0.0,95,0.06,RA,,0.22,WeatherDisplay:10.37,2013-01-13 08:29:00,
2013-01-13 03:34:00,35.0,33.7,29.82,NW,321,1.1,1.1,95,0.06,RA,,0.23,WeatherDisplay:10.37,2013-01-13 08:34:00,
2013-01-13 03:39:00,34.9,33.6,29.82,NW,321,0.0,0.0,95,0.06,RA,,0.23,WeatherDisplay:10.37,2013-01-13 08:39:00,
2013-01-13 03:44:00,34.8,33.5,29.82,NW,321,0.0,0.0,95,0.06,RA,,0.24,WeatherDisplay:10.37,2013-01-13 08:44:00,
2013-01-13 03:49:00,34.9,33.6,29.82,NW,321,0.0,0.0,95,0.07,RA,,0.25,WeatherDisplay:10.37,2013-01-13 08:49:00,
2013-01-13 03:54:00,34.8,33.5,29.82,NW,321,0.0,0.0,95,0.07,RA,,0.26,WeatherDisplay:10.37,2013-01-13 08:54:00,
2013-01-13 03:59:00,34.8,33.5,29.82,NW,321,0.0,0.0,95,0.06,RA,,0.26,WeatherDisplay:10.37,2013-01-13 08:59:00,
2013-01-13 04:04:00,34.7,33.4,29.81,NW,321,0.0,0.0,95,0.07,RA,,0.27,WeatherDisplay:10.37,2013-01-13 09:04:00,
2013-01-13 04:09:00,34.7,33.4,29.82,NW,321,0.0,0.0,95,0.08,RA,,0.28,WeatherDisplay:10.37,2013-01-13 09:09:00,
2013-01-13 04:14:00,34.7,33.4,29.82,NW,321,0.0,0.0,95,0.07,RA,,0.28,WeatherDisplay:10.37,2013-01-13 09:14:00,
2013-01-13 04:19:00,34.6,33.3,29.82,NW,321,0.0,0.0,95,0.07,,,0.28,WeatherDisplay:10.37,2013-01-13 09:19:00,
2013-01-13 04:24:00,34.5,33.2,29.83,NW,321,0.0,0.0,95,0.07,RA,,0.29,WeatherDisplay:10.37,2013-01-13 09:24:00,
2013-01-13 04:29:00,34.5,33.2,29.82,NW,321,0.0,0.0,95,0.07,RA,,0.29,WeatherDisplay:10.37,2013-01-13 09:29:00,
2013-01-13 04:34:00,34.5,33.2,29.83,NW,321,0.0,0.0,95,0.07,RA,,0.30,WeatherDisplay:10.37,2013-01-13 09:34:00,
2013-01-13 04:39:00,34.5,33.2,29.83,NW,321,0.0,0.0,95,0.07,RA,,0.30,WeatherDisplay:10.37,2013-01-13 09:39:00,
2013-01-13 04:44:00,34.4,33.1,29.83,NW,321,0.0,0.0,95,0.06,CLR,,0.31,WeatherDisplay:10.37,2013-01-13 09:44:00,
2013-01-13 04:49:00,34.4,33.1,29.82,NW,321,2.3,2.3,95,0.06,RA,,0.31,WeatherDisplay:10.37,2013-01-13 09:49:00,
2013-01-13 04:54:00,34.4,33.1,29.82,NW,321,0.0,0.0,95,0.05,RA,,0.31,WeatherDisplay:10.37,2013-01-13 09:54:00,
2013-01-13 04:59:00,34.4,33.1,29.81,NW,321,0.0,0.0,95,0.06,RA,,0.32,WeatherDisplay:10.37,2013-01-13 09:59:00,
2013-01-13 05:04:00,34.4,33.1,29.81,NW,321,0.0,0.0,95,0.06,RA,,0.33,WeatherDisplay:10.37,2013-01-13 10:04:00,
2013-01-13 05:09:00,34.4,33.1,29.81,NW,321,2.3,2.3,95,0.05,RA,,0.33,WeatherDisplay:10.37,2013-01-13 10:09:00,
2013-01-13 05:14:00,34.4,33.4,29.80,NW,321,0.0,0.0,96,0.06,RA,,0.34,WeatherDisplay:10.37,2013-01-13 10:14:00,
2013-01-13 05:19:00,34.4,33.4,29.80,NW,321,0.0,0.0,96,0.06,RA,,0.34,WeatherDisplay:10.37,2013-01-13 10:19:00,
2013-01-13 05:24:00,34.4,33.4,29.80,NW,322,0.0,0.0,96,0.06,RA,,0.35,WeatherDisplay:10.37,2013-01-13 10:24:00,
2013-01-13 05:29:00,34.4,33.4,29.81,NW,322,0.0,0.0,96,0.06,RA,,0.35,WeatherDisplay:10.37,2013-01-13 10:29:00,
2013-01-13 05:34:00,34.4,33.4,29.80,NW,322,1.1,0.0,96,0.05,,,0.35,WeatherDisplay:10.37,2013-01-13 10:34:00,
2013-01-13 05:39:00,34.4,33.4,29.80,NW,323,0.0,0.0,96,0.06,RA,,0.36,WeatherDisplay:10.37,2013-01-13 10:39:00,
2013-01-13 05:44:00,34.4,33.4,29.78,NW,322,0.0,0.0,96,0.06,RA,,0.36,WeatherDisplay:10.37,2013-01-13 10:44:00,
2013-01-13 05:49:00,34.4,33.4,29.79,NW,323,3.5,3.5,96,0.05,,,0.36,WeatherDisplay:10.37,2013-01-13 10:49:00,
2013-01-13 05:54:00,34.4,33.4,29.79,NW,324,0.0,0.0,96,0.06,RA,,0.37,WeatherDisplay:10.37,2013-01-13 10:54:00,
2013-01-13 05:59:00,34.4,33.4,29.79,NW,324,0.0,0.0,96,0.05,RA,,0.37,WeatherDisplay:10.37,2013-01-13 10:59:00,
2013-01-13 06:04:00,34.4,33.4,29.79,NW,324,1.0,0.0,96,0.04,CLR,,0.37,WeatherDisplay:10.37,2013-01-13 11:04:00,
2013-01-13 06:09:00,34.4,33.4,29.78,NW,324,0.0,0.0,96,0.04,CLR,,0.37,WeatherDisplay:10.37,2013-01-13 11:09:00,
2013-01-13 06:14:00,34.4,33.4,29.78,NNW,331,2.3,2.3,96,0.03,CLR,,0.37,WeatherDisplay:10.37,2013-01-13 11:14:00,
2013-01-13 06:19:00,34.4,33.4,29.78,NNW,331,0.0,0.0,96,0.03,CLR,,0.37,WeatherDisplay:10.37,2013-01-13 11:19:00,
2013-01-13 06:24:00,34.4,33.4,29.78,NNW,330,0.0,0.0,96,0.02,CLR,,0.37,WeatherDisplay:10.37,2013-01-13 11:24:00,
2013-01-13 06:29:00,34.4,33.4,29.76,NNW,331,1.1,1.3,96,0.02,CLR,,0.37,WeatherDisplay:10.37,2013-01-13 11:29:00,
2013-01-13 06:34:00,34.4,33.4,29.77,East,92,3.5,3.5,96,0.03,RA,,0.38,WeatherDisplay:10.37,2013-01-13 11:34:00,
2013-01-13 06:39:00,34.4,33.4,29.76,ESE,115,3.5,3.5,96,0.02,RA,,0.38,WeatherDisplay:10.37,2013-01-13 11:39:00,
2013-01-13 06:44:00,34.4,33.4,29.75,ESE,116,2.3,2.3,96,0.02,CLR,,0.38,WeatherDisplay:10.37,2013-01-13 11:44:00,
2013-01-13 06:49:00,34.3,33.3,29.77,ESE,117,0.0,0.0,96,0.02,CLR,,0.38,WeatherDisplay:10.37,2013-01-13 11:49:00,
2013-01-13 06:54:00,34.4,33.4,29.79,ESE,117,0.0,0.0,96,0.01,CLR,,0.38,WeatherDisplay:10.37,2013-01-13 11:54:00,
2013-01-13 06:59:00,34.4,33.4,29.80,ESE,118,0.0,0.0,96,0.01,CLR,,0.38,WeatherDisplay:10.37,2013-01-13 11:59:00,
2013-01-13 07:04:00,34.4,33.4,29.80,ESE,118,0.0,0.0,96,0.01,CLR,,0.38,WeatherDisplay:10.37,2013-01-13 12:04:00,
2013-01-13 07:09:00,34.4,33.4,29.80,ESE,119,0.0,0.0,96,0.01,CLR,,0.38,WeatherDisplay:10.37,2013-01-13 12:09:00,
2013-01-13 07:14:00,34.4,33.4,29.79,ESE,118,0.0,0.0,96,0.01,CLR,,0.38,WeatherDisplay:10.37,2013-01-13 12:14:00,
2013-01-13 07:19:00,34.4,33.4,29.80,ESE,118,0.0,0.0,96,0.02,RA,,0.39,WeatherDisplay:10.37,2013-01-13 12:19:00,
2013-01-13 07:24:00,34.4,33.4,29.79,ESE,118,0.0,0.0,96,0.02,RA,,0.39,WeatherDisplay:10.37,2013-01-13 12:24:00,
2013-01-13 07:29:00,34.4,33.4,29.79,ESE,119,0.0,0.0,96,0.02,CLR,,0.39,WeatherDisplay:10.37,2013-01-13 12:29:00,
2013-01-13 07:34:00,34.4,33.4,29.79,ESE,119,0.0,0.0,96,0.01,CLR,,0.39,WeatherDisplay:10.37,2013-01-13 12:34:00,
2013-01-13 07:39:00,34.4,33.4,29.79,ESE,119,0.0,0.0,96,0.02,RA,,0.40,WeatherDisplay:10.37,2013-01-13 12:39:00,
2013-01-13 07:44:00,34.4,33.4,29.78,ESE,118,0.0,0.0,96,0.02,RA,,0.40,WeatherDisplay:10.37,2013-01-13 12:44:00,
2013-01-13 07:49:00,34.4,33.4,29.78,ESE,119,0.0,0.0,96,0.02,,,0.40,WeatherDisplay:10.37,2013-01-13 12:49:00,
2013-01-13 07:54:00,34.4,33.4,29.79,ESE,119,0.0,0.0,96,0.02,CLR,,0.40,WeatherDisplay:10.37,2013-01-13 12:54:00,
2013-01-13 07:59:00,34.4,33.4,29.77,ESE,118,0.0,0.0,96,0.02,CLR,,0.40,WeatherDisplay:10.37,2013-01-13 12:59:00,
2013-01-13 08:04:00,34.4,33.4,29.78,ESE,118,0.0,0.0,96,0.02,CLR,,0.40,WeatherDisplay:10.37,2013-01-13 13:04:00,
2013-01-13 08:09:00,34.4,33.4,29.79,ESE,118,0.0,0.0,96,0.02,CLR,,0.40,WeatherDisplay:10.37,2013-01-13 13:09:00,
2013-01-13 08:14:00,34.4,33.4,29.80,ESE,119,0.0,0.0,96,0.02,CLR,,0.40,WeatherDisplay:10.37,2013-01-13 13:14:00,
2013-01-13 08:19:00,34.4,33.4,29.80,ESE,118,0.0,0.0,96,0.01,CLR,,0.40,WeatherDisplay:10.37,2013-01-13 13:19:00,
2013-01-13 08:24:00,34.4,33.6,29.81,ESE,117,1.1,1.1,97,0.01,CLR,,0.40,WeatherDisplay:10.37,2013-01-13 13:24:00,
2013-01-13 08:29:00,34.4,33.6,29.82,ESE,116,0.0,0.0,97,0.01,CLR,,0.40,WeatherDisplay:10.37,2013-01-13 13:29:00,
2013-01-13 08:34:00,34.4,33.6,29.82,ENE,57,1.1,0.0,97,0.01,CLR,,0.40,WeatherDisplay:10.37,2013-01-13 13:34:00,
2013-01-13 08:39:00,34.4,33.6,29.83,NE,55,2.3,0.0,97,0.00,CLR,,0.40,WeatherDisplay:10.37,2013-01-13 13:39:00,
2013-01-13 08:44:00,34.4,33.6,29.83,NE,36,0.0,0.0,97,0.00,CLR,,0.40,WeatherDisplay:10.37,2013-01-13 13:44:00,
2013-01-13 08:49:00,34.4,33.6,29.83,NE,34,1.1,0.0,97,0.00,CLR,,0.40,WeatherDisplay:10.37,2013-01-13 13:49:00,
2013-01-13 08:54:00,34.4,33.6,29.83,NE,34,0.0,0.0,97,0.00,CLR,,0.40,WeatherDisplay:10.37,2013-01-13 13:54:00,
2013-01-13 08:59:00,34.4,33.6,29.84,NW,308,3.5,3.5,97,0.00,CLR,,0.40,WeatherDisplay:10.37,2013-01-13 13:59:00,
2013-01-13 09:04:00,34.4,33.6,29.84,WNW,300,1.1,2.5,97,0.00,CLR,,0.40,WeatherDisplay:10.37,2013-01-13 14:04:00,
2013-01-13 09:09:00,34.4,33.6,29.85,NW,308,4.6,4.6,97,0.00,CLR,,0.40,WeatherDisplay:10.37,2013-01-13 14:09:00,
2013-01-13 09:14:00,34.4,33.6,29.85,NW,307,0.0,0.0,97,0.00,CLR,,0.40,WeatherDisplay:10.37,2013-01-13 14:14:00,
2013-01-13 09:19:00,34.4,33.6,29.85,NW,307,0.0,0.1,97,0.00,CLR,,0.40,WeatherDisplay:10.37,2013-01-13 14:19:00,
2013-01-13 09:24:00,34.4,33.6,29.85,NNW,346,6.9,6.9,97,0.00,CLR,,0.41,WeatherDisplay:10.37,2013-01-13 14:24:00,
2013-01-13 09:29:00,34.4,33.6,29.85,NNW,342,0.0,0.9,97,0.01,RA,,0.41,WeatherDisplay:10.37,2013-01-13 14:29:00,
2013-01-13 09:34:00,34.4,33.6,29.84,NW,307,3.5,3.5,97,0.01,RA,,0.41,WeatherDisplay:10.37,2013-01-13 14:34:00,
2013-01-13 09:39:00,34.4,33.6,29.84,NW,306,0.0,0.0,97,0.01,CLR,,0.41,WeatherDisplay:10.37,2013-01-13 14:39:00,
2013-01-13 09:44:00,34.4,33.6,29.84,NW,306,0.0,0.0,97,0.01,CLR,,0.41,WeatherDisplay:10.37,2013-01-13 14:44:00,
2013-01-13 09:49:00,34.4,33.6,29.83,NW,307,0.0,0.0,97,0.01,CLR,,0.41,WeatherDisplay:10.37,2013-01-13 14:49:00,
2013-01-13 09:54:00,34.4,33.6,29.84,NW,309,2.3,0.0,97,0.01,CLR,,0.41,WeatherDisplay:10.37,2013-01-13 14:54:00,
2013-01-13 09:59:00,34.4,33.6,29.83,NW,309,0.0,0.3,97,0.01,CLR,,0.41,WeatherDisplay:10.37,2013-01-13 14:59:00,
2013-01-13 10:04:00,34.4,33.6,29.84,NW,326,3.5,0.0,97,0.01,CLR,,0.41,WeatherDisplay:10.37,2013-01-13 15:04:00,
2013-01-13 10:09:00,34.4,33.6,29.85,WNW,301,9.2,9.2,97,0.01,CLR,,0.41,WeatherDisplay:10.37,2013-01-13 15:09:00,
2013-01-13 10:14:00,34.4,33.6,29.84,WNW,302,0.0,0.1,97,0.01,CLR,,0.41,WeatherDisplay:10.37,2013-01-13 15:14:00,
2013-01-13 10:19:00,34.4,33.6,29.85,NW,314,3.5,3.5,97,0.01,CLR,,0.41,WeatherDisplay:10.37,2013-01-13 15:19:00,
2013-01-13 10:24:00,34.4,33.6,29.85,NW,313,3.0,3.0,97,0.01,CLR,,0.41,WeatherDisplay:10.37,2013-01-13 15:24:00,
2013-01-13 10:30:00,34.4,33.6,29.85,NW,305,3.5,3.5,97,0.00,CLR,,0.41,WeatherDisplay:10.37,2013-01-13 15:30:00,
2013-01-13 10:35:00,34.4,33.6,29.85,NW,310,3.5,3.5,97,0.00,CLR,,0.41,WeatherDisplay:10.37,2013-01-13 15:35:00,
2013-01-13 10:40:00,34.4,33.6,29.86,WNW,302,9.0,9.0,97,0.00,CLR,,0.41,WeatherDisplay:10.37,2013-01-13 15:40:00,
2013-01-13 10:45:00,34.4,33.6,29.87,NW,319,4.6,4.6,97,0.00,CLR,,0.41,WeatherDisplay:10.37,2013-01-13 15:45:00,
2013-01-13 10:50:00,34.4,33.6,29.87,NW,321,0.0,0.0,97,0.00,CLR,,0.41,WeatherDisplay:10.37,2013-01-13 15:50:00,
2013-01-13 10:55:00,34.4,33.6,29.86,NNW,329,3.5,0.0,97,0.00,CLR,,0.41,WeatherDisplay:10.37,2013-01-13 15:55:00,
2013-01-13 11:00:00,34.4,33.6,29.86,NNW,348,0.0,0.0,97,0.00,CLR,,0.41,WeatherDisplay:10.37,2013-01-13 16:00:00,
2013-01-13 11:05:00,34.4,33.6,29.86,NNW,348,3.0,3.0,97,0.00,CLR,,0.41,WeatherDisplay:10.37,2013-01-13 16:05:00,
2013-01-13 11:10:00,34.4,33.6,29.86,NNW,346,1.1,0.0,97,0.00,CLR,,0.41,WeatherDisplay:10.37,2013-01-13 16:10:00,
2013-01-13 11:15:00,34.4,33.6,29.86,NNW,348,0.0,0.0,97,0.00,CLR,,0.41,WeatherDisplay:10.37,2013-01-13 16:15:00,
2013-01-13 11:20:00,34.5,33.7,29.85,NNW,345,0.0,0.0,97,0.00,CLR,,0.41,WeatherDisplay:10.37,2013-01-13 16:20:00,
2013-01-13 11:25:00,34.5,33.7,29.85,NNW,346,2.3,2.3,97,0.00,CLR,,0.41,WeatherDisplay:10.37,2013-01-13 16:25:00,
2013-01-13 11:30:00,34.5,33.7,29.86,NNW,331,3.5,3.5,97,0.00,CLR,,0.41,WeatherDisplay:10.37,2013-01-13 16:30:00,
2013-01-13 11:35:00,34.4,33.6,29.86,NW,312,1.1,1.1,97,0.00,CLR,,0.41,WeatherDisplay:10.37,2013-01-13 16:35:00,
2013-01-13 11:40:00,34.4,33.6,29.86,NW,315,3.5,3.5,97,0.00,CLR,,0.41,WeatherDisplay:10.37,2013-01-13 16:40:00,
2013-01-13 11:45:00,34.6,33.6,29.86,NNW,327,8.1,8.1,96,0.00,CLR,,0.41,WeatherDisplay:10.37,2013-01-13 16:45:00,
2013-01-13 11:50:00,34.7,33.7,29.85,NW,326,0.0,0.0,96,0.00,CLR,,0.41,WeatherDisplay:10.37,2013-01-13 16:50:00,
2013-01-13 11:55:00,34.8,34.0,29.87,NW,314,1.1,1.1,97,0.00,CLR,,0.41,WeatherDisplay:10.37,2013-01-13 16:55:00,
2013-01-13 12:00:00,34.7,33.9,29.87,NW,309,5.0,5.0,97,0.00,CLR,,0.41,WeatherDisplay:10.37,2013-01-13 17:00:00,
2013-01-13 12:05:00,34.6,33.6,29.86,NW,307,0.0,0.0,96,0.00,CLR,,0.41,WeatherDisplay:10.37,2013-01-13 17:05:00,
2013-01-13 12:10:00,34.6,33.6,29.85,NW,305,6.9,6.9,96,0.00,CLR,,0.41,WeatherDisplay:10.37,2013-01-13 17:10:00,
2013-01-13 12:15:00,34.7,33.7,29.85,North,5,2.3,2.3,96,0.00,CLR,,0.41,WeatherDisplay:10.37,2013-01-13 17:15:00,
2013-01-13 12:20:00,34.8,33.8,29.85,NNW,342,0.0,0.0,96,0.00,CLR,,0.41,WeatherDisplay:10.37,2013-01-13 17:20:00,
2013-01-13 12:25:00,35.0,34.0,29.84,NW,325,0.0,0.0,96,0.01,RA,,0.42,WeatherDisplay:10.37,2013-01-13 17:25:00,
2013-01-13 12:30:00,35.0,34.0,29.83,NW,322,0.0,0.0,96,0.01,RA,,0.42,WeatherDisplay:10.37,2013-01-13 17:30:00,
2013-01-13 12:35:00,34.9,33.9,29.82,NE,42,6.9,6.9,96,0.01,CLR,,0.42,WeatherDisplay:10.37,2013-01-13 17:35:00,
2013-01-13 12:40:00,35.0,34.0,29.82,NE,36,1.1,0.0,96,0.01,CLR,,0.42,WeatherDisplay:10.37,2013-01-13 17:40:00,
2013-01-13 12:45:00,35.0,34.0,29.82,NNE,30,9.2,9.2,96,0.01,CLR,,0.42,WeatherDisplay:10.37,2013-01-13 17:45:00,
2013-01-13 12:50:00,34.9,33.9,29.82,North,9,5.0,5.0,96,0.01,CLR,,0.42,WeatherDisplay:10.37,2013-01-13 17:50:00,
2013-01-13 12:55:00,34.8,33.8,29.82,NE,34,4.6,0.0,96,0.01,CLR,,0.42,WeatherDisplay:10.37,2013-01-13 17:55:00,
2013-01-13 13:00:00,35.0,34.0,29.83,North,360,4.6,4.6,96,0.01,CLR,,0.42,WeatherDisplay:10.37,2013-01-13 18:00:00,
2013-01-13 13:05:00,35.0,33.7,29.83,North,355,2.3,0.0,95,0.01,CLR,,0.42,WeatherDisplay:10.37,2013-01-13 18:05:00,
2013-01-13 13:10:00,35.1,33.8,29.84,NNW,340,4.0,4.0,95,0.01,CLR,,0.42,WeatherDisplay:10.37,2013-01-13 18:10:00,
2013-01-13 13:15:00,35.0,33.7,29.84,NE,37,0.0,0.0,95,0.01,CLR,,0.42,WeatherDisplay:10.37,2013-01-13 18:15:00,
2013-01-13 13:20:00,35.0,33.7,29.85,NNE,26,3.5,3.5,95,0.01,CLR,,0.42,WeatherDisplay:10.37,2013-01-13 18:20:00,
2013-01-13 13:25:00,35.0,33.7,29.85,North,5,3.5,3.5,95,0.00,CLR,,0.42,WeatherDisplay:10.37,2013-01-13 18:25:00,
2013-01-13 13:30:00,34.8,33.5,29.84,WNW,300,0.0,0.0,95,0.00,CLR,,0.42,WeatherDisplay:10.37,2013-01-13 18:30:00,
2013-01-13 13:35:00,34.9,33.6,29.84,NW,323,1.1,0.0,95,0.00,CLR,,0.42,WeatherDisplay:10.37,2013-01-13 18:35:00,
2013-01-13 13:40:00,35.0,33.7,29.83,NW,323,1.1,0.0,95,0.00,CLR,,0.42,WeatherDisplay:10.37,2013-01-13 18:40:00,
2013-01-13 13:45:00,35.0,33.7,29.83,NW,323,0.0,0.0,95,0.00,CLR,,0.42,WeatherDisplay:10.37,2013-01-13 18:45:00,
2013-01-13 13:50:00,35.2,33.9,29.84,NNW,327,3.5,3.5,95,0.00,CLR,,0.42,WeatherDisplay:10.37,2013-01-13 18:50:00,
2013-01-13 13:55:00,35.0,33.4,29.84,NW,304,5.8,5.8,94,0.00,CLR,,0.42,WeatherDisplay:10.37,2013-01-13 18:55:00,
2013-01-13 14:00:00,34.8,33.0,29.83,NNE,20,3.0,3.0,93,0.00,CLR,,0.42,WeatherDisplay:10.37,2013-01-13 19:00:00,
2013-01-13 14:05:00,34.7,32.6,29.83,NW,326,4.6,4.6,92,0.00,CLR,,0.42,WeatherDisplay:10.37,2013-01-13 19:05:00,
2013-01-13 14:10:00,34.6,32.5,29.84,WNW,299,0.0,0.2,92,0.00,CLR,,0.42,WeatherDisplay:10.37,2013-01-13 19:10:00,
2013-01-13 14:15:00,34.4,32.3,29.84,NNE,19,2.3,2.3,92,0.00,CLR,,0.42,WeatherDisplay:10.37,2013-01-13 19:15:00,
2013-01-13 14:20:00,34.4,32.3,29.85,NW,315,3.5,3.5,92,0.00,CLR,,0.42,WeatherDisplay:10.37,2013-01-13 19:20:00,
2013-01-13 14:25:00,34.4,32.3,29.84,NW,317,0.0,0.0,92,0.00,CLR,,0.42,WeatherDisplay:10.37,2013-01-13 19:25:00,
2013-01-13 14:30:00,34.4,32.3,29.82,NW,317,0.0,0.0,92,0.00,CLR,,0.42,WeatherDisplay:10.37,2013-01-13 19:30:00,
2013-01-13 14:35:00,34.4,32.3,29.83,NW,317,0.0,0.0,92,0.00,CLR,,0.42,WeatherDisplay:10.37,2013-01-13 19:35:00,
2013-01-13 14:40:00,34.4,32.3,29.83,NW,317,0.0,0.0,92,0.00,CLR,,0.42,WeatherDisplay:10.37,2013-01-13 19:40:00,
2013-01-13 14:45:00,34.4,32.3,29.83,NW,318,1.1,0.0,92,0.00,CLR,,0.42,WeatherDisplay:10.37,2013-01-13 19:45:00,
2013-01-13 14:50:00,34.4,32.3,29.84,NW,319,3.0,3.0,92,0.00,CLR,,0.42,WeatherDisplay:10.37,2013-01-13 19:50:00,
2013-01-13 14:55:00,34.4,32.3,29.84,NW,315,1.1,0.0,92,0.00,CLR,,0.42,WeatherDisplay:10.37,2013-01-13 19:55:00,
2013-01-13 15:00:00,34.4,32.3,29.84,NW,313,0.0,0.0,92,0.00,CLR,,0.42,WeatherDisplay:10.37,2013-01-13 20:00:00,
2013-01-13 15:05:00,34.4,32.3,29.84,NW,318,0.0,0.0,92,0.00,CLR,,0.42,WeatherDisplay:10.37,2013-01-13 20:05:00,
2013-01-13 15:10:00,34.4,32.3,29.86,NW,304,4.0,4.0,92,0.00,CLR,,0.42,WeatherDisplay:10.37,2013-01-13 20:10:00,
2013-01-13 15:15:00,34.4,32.3,29.86,NW,315,0.0,0.0,92,0.00,CLR,,0.42,WeatherDisplay:10.37,2013-01-13 20:15:00,
2013-01-13 15:20:00,34.4,32.3,29.87,NW,317,2.0,2.0,92,0.00,CLR,,0.42,WeatherDisplay:10.37,2013-01-13 20:20:00,
2013-01-13 15:25:00,34.4,32.3,29.87,West,273,5.8,5.8,92,0.00,CLR,,0.42,WeatherDisplay:10.37,2013-01-13 20:25:00,
2013-01-13 15:30:00,34.4,32.3,29.88,WNW,283,0.0,1.7,92,0.00,CLR,,0.42,WeatherDisplay:10.37,2013-01-13 20:30:00,
2013-01-13 15:35:00,34.4,32.3,29.88,NW,314,11.0,11.0,92,0.00,CLR,,0.42,WeatherDisplay:10.37,2013-01-13 20:35:00,
2013-01-13 15:40:00,34.3,31.9,29.89,NW,322,4.6,4.6,91,0.00,CLR,,0.42,WeatherDisplay:10.37,2013-01-13 20:40:00,
2013-01-13 15:45:00,34.2,32.1,29.89,WNW,301,2.3,0.0,92,0.00,CLR,,0.42,WeatherDisplay:10.37,2013-01-13 20:45:00,
2013-01-13 15:50:00,34.1,32.3,29.89,WNW,300,0.0,0.0,93,0.00,CLR,,0.42,WeatherDisplay:10.37,2013-01-13 20:50:00,
2013-01-13 15:55:00,34.1,32.3,29.89,NW,306,4.6,4.6,93,0.00,CLR,,0.42,WeatherDisplay:10.37,2013-01-13 20:55:00,
2013-01-13 16:00:00,34.0,32.2,29.86,NW,306,0.0,0.0,93,0.00,CLR,,0.42,WeatherDisplay:10.37,2013-01-13 21:00:00,
2013-01-13 16:05:00,33.9,32.1,29.86,NW,306,0.0,0.0,93,0.00,CLR,,0.42,WeatherDisplay:10.37,2013-01-13 21:05:00,
2013-01-13 16:10:00,33.9,32.1,29.87,NW,306,0.0,0.2,93,0.00,CLR,,0.42,WeatherDisplay:10.37,2013-01-13 21:10:00,
2013-01-13 16:15:00,33.9,32.1,29.85,NW,306,2.3,0.0,93,0.00,CLR,,0.42,WeatherDisplay:10.37,2013-01-13 21:15:00,
2013-01-13 16:20:00,33.8,32.3,29.86,NW,307,0.0,0.0,94,0.00,CLR,,0.42,WeatherDisplay:10.37,2013-01-13 21:20:00,
2013-01-13 16:25:00,33.7,31.9,29.86,NW,306,4.6,0.0,93,0.00,CLR,,0.42,WeatherDisplay:10.37,2013-01-13 21:25:00,
2013-01-13 16:30:00,33.5,31.7,29.85,NW,306,1.1,0.0,93,0.00,CLR,,0.42,WeatherDisplay:10.37,2013-01-13 21:30:00,
2013-01-13 16:35:00,33.5,31.7,29.85,NW,306,0.0,0.0,93,0.00,CLR,,0.42,WeatherDisplay:10.37,2013-01-13 21:35:00,
2013-01-13 16:40:00,33.4,31.6,29.86,NW,306,3.5,0.0,93,0.00,CLR,,0.42,WeatherDisplay:10.37,2013-01-13 21:40:00,
2013-01-13 16:45:00,33.4,31.3,29.88,WNW,303,3.5,0.0,92,0.00,CLR,,0.42,WeatherDisplay:10.37,2013-01-13 21:45:00,
2013-01-13 16:50:00,33.5,31.4,29.87,NW,304,2.3,0.0,92,0.00,CLR,,0.42,WeatherDisplay:10.37,2013-01-13 21:50:00,
2013-01-13 16:55:00,33.4,31.3,29.89,West,277,3.5,3.5,92,0.00,CLR,,0.42,WeatherDisplay:10.37,2013-01-13 21:55:00,
2013-01-13 17:00:00,33.5,31.4,29.88,West,275,0.0,0.0,92,0.00,CLR,,0.42,WeatherDisplay:10.37,2013-01-13 22:00:00,
2013-01-13 17:05:00,33.4,31.3,29.88,West,273,3.5,3.5,92,0.00,CLR,,0.42,WeatherDisplay:10.37,2013-01-13 22:05:00,
2013-01-13 17:10:00,33.4,31.3,29.86,West,274,0.0,0.0,92,0.00,CLR,,0.42,WeatherDisplay:10.37,2013-01-13 22:10:00,
2013-01-13 17:15:00,33.3,31.5,29.86,West,274,0.0,0.0,93,0.00,CLR,,0.42,WeatherDisplay:10.37,2013-01-13 22:15:00,
2013-01-13 17:20:00,33.2,31.4,29.86,West,274,1.1,0.0,93,0.00,CLR,,0.42,WeatherDisplay:10.37,2013-01-13 22:20:00,
2013-01-13 17:25:00,33.1,31.3,29.86,West,274,1.1,0.0,93,0.00,CLR,,0.42,WeatherDisplay:10.37,2013-01-13 22:25:00,
2013-01-13 17:30:00,33.0,31.5,29.87,West,274,1.1,1.1,94,0.00,CLR,,0.42,WeatherDisplay:10.37,2013-01-13 22:30:00,
2013-01-13 17:35:00,32.9,31.4,29.88,West,274,2.3,0.0,94,0.00,CLR,,0.42,WeatherDisplay:10.37,2013-01-13 22:35:00,
2013-01-13 17:40:00,32.7,31.2,29.88,West,273,3.5,0.0,94,0.00,CLR,,0.42,WeatherDisplay:10.37,2013-01-13 22:40:00,
2013-01-13 17:45:00,32.6,31.1,29.88,West,273,1.1,1.1,94,0.00,CLR,,0.42,WeatherDisplay:10.37,2013-01-13 22:45:00,
2013-01-13 17:50:00,32.5,31.0,29.88,West,273,2.3,0.0,94,0.00,CLR,,0.42,WeatherDisplay:10.37,2013-01-13 22:50:00,
2013-01-13 17:55:00,32.4,30.9,29.88,West,274,1.1,0.0,94,0.00,CLR,,0.42,WeatherDisplay:10.37,2013-01-13 22:55:00,
2013-01-13 18:00:00,32.3,31.0,29.86,West,277,3.5,3.5,95,0.00,CLR,,0.42,WeatherDisplay:10.37,2013-01-13 23:00:00,
2013-01-13 18:05:00,32.2,30.9,29.86,WNW,283,0.0,0.0,95,0.00,CLR,,0.42,WeatherDisplay:10.37,2013-01-13 23:05:00,
2013-01-13 18:10:00,32.0,30.7,29.85,WNW,283,1.1,0.0,95,0.00,CLR,,0.42,WeatherDisplay:10.37,2013-01-13 23:10:00,
2013-01-13 18:15:00,32.0,30.7,29.86,WNW,282,2.3,2.3,95,0.00,CLR,,0.42,WeatherDisplay:10.37,2013-01-13 23:15:00,
2013-01-13 18:20:00,31.9,30.6,29.86,WNW,283,0.0,0.0,95,0.00,CLR,,0.42,WeatherDisplay:10.37,2013-01-13 23:20:00,
2013-01-13 18:25:00,31.8,30.5,29.87,West,261,3.5,3.5,95,0.00,CLR,,0.42,WeatherDisplay:10.37,2013-01-13 23:25:00,
2013-01-13 18:30:00,31.7,30.4,29.88,West,260,1.1,1.8,95,0.00,CLR,,0.42,WeatherDisplay:10.37,2013-01-13 23:30:00,
2013-01-13 18:35:00,31.7,30.4,29.88,West,279,1.1,1.1,95,0.00,CLR,,0.42,WeatherDisplay:10.37,2013-01-13 23:35:00,
2013-01-13 18:40:00,31.5,30.2,29.88,WNW,292,0.0,0.0,95,0.00,CLR,,0.42,WeatherDisplay:10.37,2013-01-13 23:40:00,
2013-01-13 18:45:00,31.4,30.1,29.88,WNW,291,0.0,0.0,95,0.00,CLR,,0.42,WeatherDisplay:10.37,2013-01-13 23:45:00,
2013-01-13 18:50:00,31.4,30.4,29.88,WNW,289,1.1,0.0,96,0.00,CLR,,0.42,WeatherDisplay:10.37,2013-01-13 23:50:00,
2013-01-13 18:55:00,31.4,30.4,29.88,WNW,288,0.0,0.1,96,0.00,CLR,,0.42,WeatherDisplay:10.37,2013-01-13 23:55:00,
2013-01-13 19:00:00,31.4,30.4,29.88,West,272,3.5,3.5,96,0.00,CLR,,0.42,WeatherDisplay:10.37,2013-01-14 00:00:00,
2013-01-13 19:05:00,31.3,30.3,29.88,West,269,3.5,3.5,96,0.00,CLR,,0.42,WeatherDisplay:10.37,2013-01-14 00:05:00,
2013-01-13 19:10:00,31.2,30.2,29.88,West,273,2.3,2.3,96,0.00,CLR,,0.42,WeatherDisplay:10.37,2013-01-14 00:10:00,
2013-01-13 19:15:00,31.1,30.1,29.88,WNW,299,3.5,0.0,96,0.00,CLR,,0.42,WeatherDisplay:10.37,2013-01-14 00:15:00,
2013-01-13 19:20:00,31.0,30.0,29.89,WNW,303,3.5,3.5,96,0.00,CLR,,0.42,WeatherDisplay:10.37,2013-01-14 00:20:00,
2013-01-13 19:25:00,30.9,29.9,29.88,NW,307,2.3,0.0,96,0.00,CLR,,0.42,WeatherDisplay:10.37,2013-01-14 00:25:00,
2013-01-13 19:30:00,30.9,29.9,29.89,West,278,3.5,0.0,96,0.00,CLR,,0.42,WeatherDisplay:10.37,2013-01-14 00:30:00,
2013-01-13 19:35:00,30.7,29.7,29.89,WNW,292,3.5,3.5,96,0.00,CLR,,0.42,WeatherDisplay:10.37,2013-01-14 00:35:00,
2013-01-13 19:40:00,30.5,29.5,29.89,WNW,292,4.6,4.6,96,0.00,CLR,,0.42,WeatherDisplay:10.37,2013-01-14 00:40:00,
2013-01-13 19:45:00,30.5,29.5,29.89,NW,309,5.8,5.8,96,0.00,CLR,,0.42,WeatherDisplay:10.37,2013-01-14 00:45:00,
2013-01-13 19:50:00,30.4,29.4,29.90,WNW,296,4.0,4.0,96,0.00,CLR,,0.42,WeatherDisplay:10.37,2013-01-14 00:50:00,
2013-01-13 19:55:00,30.3,29.3,29.90,NW,313,0.0,1.3,96,0.00,CLR,,0.42,WeatherDisplay:10.37,2013-01-14 00:55:00,
2013-01-13 20:00:00,30.3,29.3,29.90,West,267,1.1,1.1,96,0.00,CLR,,0.42,WeatherDisplay:10.37,2013-01-14 01:00:00,
2013-01-13 20:05:00,30.3,29.3,29.90,West,277,1.1,0.0,96,0.00,CLR,,0.42,WeatherDisplay:10.37,2013-01-14 01:05:00,
2013-01-13 20:10:00,30.2,29.2,29.90,West,277,2.3,0.0,96,0.00,CLR,,0.42,WeatherDisplay:10.37,2013-01-14 01:10:00,
2013-01-13 20:15:00,30.2,29.2,29.90,West,265,2.3,2.3,96,0.00,CLR,,0.42,WeatherDisplay:10.37,2013-01-14 01:15:00,
2013-01-13 20:20:00,30.2,29.2,29.90,WNW,303,3.5,3.5,96,0.00,CLR,,0.42,WeatherDisplay:10.37,2013-01-14 01:20:00,
2013-01-13 20:25:00,30.2,29.2,29.90,West,270,1.1,2.5,96,0.00,CLR,,0.42,WeatherDisplay:10.37,2013-01-14 01:25:00,
2013-01-13 20:30:00,30.1,29.1,29.91,NNW,337,6.0,6.0,96,0.00,CLR,,0.42,WeatherDisplay:10.37,2013-01-14 01:30:00,
2013-01-13 20:35:00,30.0,29.0,29.91,WNW,292,10.0,10.0,96,0.00,CLR,,0.42,WeatherDisplay:10.37,2013-01-14 01:35:00,
2013-01-13 20:40:00,29.8,28.8,29.91,WNW,293,8.1,8.1,96,0.00,CLR,,0.42,WeatherDisplay:10.37,2013-01-14 01:40:00,
2013-01-13 20:45:00,29.7,28.7,29.91,West,277,4.0,4.0,96,0.00,CLR,,0.42,WeatherDisplay:10.37,2013-01-14 01:45:00,
2013-01-13 20:50:00,29.4,28.4,29.92,NW,306,2.3,2.3,96,0.00,CLR,,0.42,WeatherDisplay:10.37,2013-01-14 01:50:00,
2013-01-13 20:55:00,29.2,28.2,29.92,WNW,297,5.8,5.8,96,0.00,CLR,,0.42,WeatherDisplay:10.37,2013-01-14 01:55:00,
2013-01-13 21:00:00,29.1,27.8,29.91,NW,314,5.8,5.8,95,0.00,CLR,,0.42,WeatherDisplay:10.37,2013-01-14 02:00:00,
2013-01-13 21:05:00,28.9,27.6,29.92,West,279,6.9,6.9,95,0.00,CLR,,0.42,WeatherDisplay:10.37,2013-01-14 02:05:00,
2013-01-13 21:10:00,28.7,27.4,29.91,West,260,5.8,5.8,95,0.00,CLR,,0.42,WeatherDisplay:10.37,2013-01-14 02:10:00,
2013-01-13 21:15:00,28.7,27.4,29.91,WNW,290,3.0,3.0,95,0.00,CLR,,0.42,WeatherDisplay:10.37,2013-01-14 02:15:00,
2013-01-13 21:20:00,28.5,27.3,29.92,WNW,286,4.0,4.0,95,0.00,CLR,,0.42,WeatherDisplay:10.37,2013-01-14 02:20:00,
2013-01-13 21:26:00,28.4,26.9,29.92,West,272,5.8,5.8,94,0.00,CLR,,0.42,WeatherDisplay:10.37,2013-01-14 02:26:00,
2013-01-13 21:31:00,28.3,26.8,29.92,NW,304,6.9,6.9,94,0.00,CLR,,0.42,WeatherDisplay:10.37,2013-01-14 02:31:00,
2013-01-13 21:36:00,28.1,26.6,29.92,WNW,302,2.3,2.3,94,0.00,CLR,,0.42,WeatherDisplay:10.37,2013-01-14 02:36:00,
2013-01-13 21:41:00,28.0,26.5,29.92,WNW,288,3.5,3.5,94,0.00,CLR,,0.42,WeatherDisplay:10.37,2013-01-14 02:41:00,
2013-01-13 21:46:00,27.9,26.4,29.92,West,272,2.3,2.3,94,0.00,CLR,,0.42,WeatherDisplay:10.37,2013-01-14 02:46:00,
2013-01-13 21:51:00,27.8,26.0,29.92,West,271,6.9,6.9,93,0.00,CLR,,0.42,WeatherDisplay:10.37,2013-01-14 02:51:00,
2013-01-13 21:56:00,27.7,25.9,29.92,West,270,4.6,4.6,93,0.00,CLR,,0.42,WeatherDisplay:10.37,2013-01-14 02:56:00,
2013-01-13 22:01:00,27.6,25.8,29.92,WNW,292,3.5,3.5,93,0.00,CLR,,0.42,WeatherDisplay:10.37,2013-01-14 03:01:00,
2013-01-13 22:06:00,27.5,25.7,29.93,West,276,6.9,6.9,93,0.00,CLR,,0.42,WeatherDisplay:10.37,2013-01-14 03:06:00,
2013-01-13 22:11:00,27.3,25.5,29.92,West,263,9.2,9.2,93,0.00,CLR,,0.42,WeatherDisplay:10.37,2013-01-14 03:11:00,
2013-01-13 22:16:00,27.1,25.1,29.92,West,279,5.0,5.0,92,0.00,CLR,,0.42,WeatherDisplay:10.37,2013-01-14 03:16:00,
2013-01-13 22:21:00,26.9,24.9,29.94,NNW,334,3.5,3.5,92,0.00,CLR,,0.42,WeatherDisplay:10.37,2013-01-14 03:21:00,
2013-01-13 22:26:00,26.8,24.8,29.94,West,273,8.1,8.1,92,0.00,CLR,,0.42,WeatherDisplay:10.37,2013-01-14 03:26:00,
2013-01-13 22:31:00,26.5,24.5,29.95,NW,307,6.9,6.9,92,0.00,CLR,,0.42,WeatherDisplay:10.37,2013-01-14 03:31:00,
2013-01-13 22:36:00,26.4,24.1,29.95,WNW,288,5.8,5.8,91,0.00,CLR,,0.42,WeatherDisplay:10.37,2013-01-14 03:36:00,
2013-01-13 22:41:00,26.2,23.9,29.95,West,281,6.0,6.0,91,0.00,CLR,,0.42,WeatherDisplay:10.37,2013-01-14 03:41:00,
2013-01-13 22:46:00,26.2,23.7,29.95,NW,309,9.2,9.2,90,0.00,CLR,,0.42,WeatherDisplay:10.37,2013-01-14 03:46:00,
2013-01-13 22:51:00,26.0,23.5,29.95,West,273,7.0,7.0,90,0.00,CLR,,0.42,WeatherDisplay:10.37,2013-01-14 03:51:00,
2013-01-13 22:56:00,25.9,23.1,29.95,WNW,296,3.5,3.5,89,0.00,CLR,,0.42,WeatherDisplay:10.37,2013-01-14 03:56:00,
2013-01-13 23:01:00,25.8,23.0,29.95,WNW,303,11.5,11.5,89,0.00,CLR,,0.42,WeatherDisplay:10.37,2013-01-14 04:01:00,
2013-01-13 23:06:00,25.7,22.9,29.96,NW,310,4.6,4.6,89,0.00,CLR,,0.42,WeatherDisplay:10.37,2013-01-14 04:06:00,
2013-01-13 23:11:00,25.6,22.8,29.96,NW,307,10.4,10.4,89,0.00,CLR,,0.42,WeatherDisplay:10.37,2013-01-14 04:11:00,
2013-01-13 23:16:00,25.6,22.8,29.96,NW,304,6.9,6.9,89,0.00,CLR,,0.42,WeatherDisplay:10.37,2013-01-14 04:16:00,
2013-01-13 23:21:00,25.6,22.8,29.96,North,355,6.0,6.0,89,0.00,CLR,,0.42,WeatherDisplay:10.37,2013-01-14 04:21:00,
2013-01-13 23:26:00,25.4,22.3,29.97,WNW,294,5.8,5.8,88,0.00,CLR,,0.42,WeatherDisplay:10.37,2013-01-14 04:26:00,
2013-01-13 23:31:00,25.3,22.2,29.97,NNW,328,4.6,4.6,88,0.00,CLR,,0.42,WeatherDisplay:10.37,2013-01-14 04:31:00,
2013-01-13 23:37:00,25.1,22.0,29.98,WNW,294,9.2,9.2,88,0.00,CLR,,0.42,WeatherDisplay:10.37,2013-01-14 04:37:00,
2013-01-13 23:42:00,24.9,21.6,29.98,NW,310,9.2,9.2,87,0.00,CLR,,0.42,WeatherDisplay:10.37,2013-01-14 04:42:00,
2013-01-13 23:47:00,24.8,21.5,29.98,WNW,297,9.2,9.2,87,0.00,CLR,,0.42,WeatherDisplay:10.37,2013-01-14 04:47:00,
2013-01-13 23:52:00,24.8,21.5,29.99,WNW,300,6.9,6.9,87,0.00,CLR,,0.42,WeatherDisplay:10.37,2013-01-14 04:52:00,
2013-01-13 23:57:00,24.8,21.8,29.98,WNW,286,4.6,4.6,88,0.00,CLR,,0.42,WeatherDisplay:10.37,2013-01-14 04:57:00,